Location: Red Bud (historical)
(37.7759°N, 88.4053°W)
Time: 23:58:28
(UTC+00:00)

OAO 3 Rocket - Pass Details

Date: 29 October 2020
Orbit: 629 x 682 km, 35.0° (Epoch: 28 November)

Event Time Altitude Azimuth Distance (km) Brightness Sun altitude
Rises 23:20:39 0° 274° (W) 2,996 8.3 -5.2°
Reaches altitude 10° 23:23:11 10° 266° (W) 2,073 7.5 -5.7°
Maximum altitude 23:27:38 37° 199° (SSW) 1,003 4.5 -6.6°
Drops below altitude 10° 23:32:01 10° 132° (SE) 2,036 5.4 -7.4°
Sets 23:34:28 0° 124° (SE) 2,935 6.1 -7.9°
Enters shadow 23:34:31 - 124° (ESE) 2,948 6.1 -7.9°
